User: anonymous   Login
Location: Edoum�
(0.9447°N, 10.6482°E)
Time: 15:50:59
(UTC+00:00)
Language:

PEGASUS R/B - Orbit

View from above orbital plane
View from above orbital plane
View from above satellite
View from above satellite

Ground track
Ground track

The orbit data is extracted from the following two-line orbital elements,

1 28983U 06008D   21164.39583572  .00005704  25304-5  26963-3 0  9994
2 28983 105.5633 208.1460 1966912   5.9616 356.1524 11.45959832609926
Epoch (UTC): 13 June 2021 09:30:00
Eccentricity: 0.1966912
inclination: 105.5633°
perigee height: 297 km
apogee height: 3567 km
right ascension of ascending node: 208.1460°
argument of perigee: 5.9616°
revolutions per day: 11.45959832
mean anomaly at epoch: 356.1524°
orbit number at epoch: 60992

The dashed part of the orbit path shows where the satellite is in the earth's shadow,  

DLR